Location: Niverville
(49.6028°N, 97.0419°W)
Time: 05:08:36
(UTC-05:00)

Daily predictions for brighter satellites

Satellite Brightness Start Highest point End
(mag) Time Altitude Azimuth Time Altitude Azimuth Time Altitude Azimuth
Cosmos 2322 Rocket 4.4 00:00:15 10° NNW 00:02:35 19° N 00:02:35 19° N
ATLAS 5 CENTAUR R/B 4.4 00:07:41 10° NW 00:11:00 19° N 00:11:00 19° N
CENTAUR R/B 4.4 00:44:48 10° WNW 00:50:38 29° N 00:57:04 10° NE
CZ-4C R/B 4.3 01:05:24 10° NW 01:08:55 29° NNW 01:08:55 29° NNW
ATLAS 2AS CENTAUR R/B 4.4 01:54:39 29° ENE 01:54:39 29° ENE 01:58:41 10° NE
Cosmos 2219 Rocket 4.3 02:32:07 10° NNW 02:34:28 21° N 02:34:28 21° N
SL-16 R/B 4.1 02:38:38 29° ENE 02:38:57 29° ENE 02:44:12 10° N
CENTAUR R/B 4.4 02:37:12 10° NW 02:43:34 31° NNE 02:50:31 10° ENE
NOSS 3-2 (C) 4.5 02:46:28 10° NW 02:53:30 52° NE 03:01:10 10° ESE
ARIANE 5 R/B 4.4 03:16:30 10° NE 03:19:31 25° ENE 03:19:31 25° ENE
CZ-3A R/B 4.2 03:27:47 29° ENE 03:27:47 29° ENE 03:30:27 10° E
Cosmos 2333 Rocket 4.0 03:20:47 10° NNW 03:23:10 25° NNW 03:23:10 25° NNW
Nadezhda 3 Rocket 4.4 03:40:52 60° NNE 03:40:52 60° NNE 03:45:59 10° NNE
ATLAS 2AS CENTAUR R/B 3.1 03:42:05 66° NW 03:42:05 66° NW 03:50:10 10° NE
Lacrosse 5 rocket 3.7 03:45:22 24° ENE 03:45:22 24° ENE 03:47:10 10° ENE
ATLAS 5 CENTAUR R/B 4.4 03:48:48 16° SE 03:48:48 16° SE 03:50:04 10° SE
Cosmos 2237 Rocket 3.7 03:40:33 10° NNW 03:43:22 29° N 03:43:22 29° N
Cosmos 968 Rocket 4.4 03:58:40 45° NE 03:58:40 45° NE 04:02:16 10° NNE
CZ-2D R/B 2.6 04:01:28 10° NNE 04:06:12 55° E 04:06:12 55° E
SL-16 R/B 3.3 04:01:45 10° NNW 04:07:10 42° NE 04:12:33 10° ESE
Cosmos 2219 3.6 04:08:40 58° NNE 04:08:40 58° NNE 04:13:13 10° NNE
Lacrosse 5 3.1 04:15:13 33° ESE 04:15:13 33° ESE 04:19:08 10° ENE
Cosmos 1934 Rocket 3.9 04:11:04 10° N 04:16:55 76° NW 04:16:55 76° NW
Cosmos 1821 Rocket 4.2 04:12:44 10° NNW 04:17:59 58° NW 04:17:59 58° NW
IRS-1D 3.8 04:13:59 10° NNE 04:18:47 71° NE 04:18:47 71° NE
SL-16 R/B 2.9 04:23:44 49° NW 04:23:44 49° NW 04:28:26 10° NNW
Cosmos 2227 Rocket 3.0 04:21:39 41° SE 04:22:37 45° ESE 04:27:59 10° NE
Cosmos 1605 Rocket 3.9 04:18:10 10° N 04:24:21 81° E 04:25:57 52° SSE
UNKNOWN OBJECT B 4.3 04:21:22 10° NNE 04:24:03 37° NE 04:24:03 37° NE
Resurs 1-4 Rocket 2.1 04:20:10 10° NNE 04:25:18 79° ENE 04:25:18 79° ENE
BREEZE-M DEB (TANK) 3.7 04:30:00 62° SSW 04:30:00 62° SSW 04:41:10 10° SE
Cosmos 2297 Rocket 3.3 04:29:44 30° SSE 04:31:38 39° ESE 04:36:51 10° NE
CENTAUR R/B 3.4 04:28:12 10° NW 04:35:42 64° NE 04:43:53 10° ESE
Cosmos 1606 Rocket 4.5 04:32:51 10° N 04:37:07 47° ENE 04:38:53 30° SE
BREEZE-M DEB (TANK) 4.0 04:39:36 61° E 04:39:36 61° E 04:45:27 10° E
Meteor 1-18 Rocket 4.3 04:40:09 62° WNW 04:40:09 62° WNW 04:45:37 10° N
ERS-2 3.9 04:36:51 10° NNE 04:38:40 27° N 04:38:40 27° N
GEOS 3 Rocket 4.1 04:37:25 10° NNE 04:42:18 45° NW 04:42:20 45° NW
Okean O Rocket 2.9 04:38:22 10° NNE 04:42:29 37° E 04:44:06 28° SE
NOSS 3-2 (C) 3.9 04:37:30 10° NW 04:44:42 56° WSW 04:52:29 10° SSE
RESURS DK-1 3.3 04:44:50 41° ESE 04:44:56 41° ESE 04:48:51 10° NE
Cosmos 1726 Rocket 4.3 04:43:03 10° N 04:47:21 51° ENE 04:51:36 10° SSE
Cosmos 220 Rocket 4.4 04:49:20 54° ESE 04:49:29 54° ESE 04:53:38 10° NNE
Cosmos 1777 Rocket 3.9 04:54:17 68° W 04:54:31 69° WNW 04:59:49 10° NNE
CZ-2D R/B 3.5 04:54:35 10° NNE 04:58:12 70° NNE 04:58:12 70° NNE
ARIANE 5 R/B 2.9 04:55:22 10° N 04:59:52 44° NW 04:59:52 44° NW
Cosmos 2344 3.7 04:57:26 42° SW 05:00:36 80° NW 05:10:03 10° NE
Meteor 2-8 Rocket 4.3 04:58:42 44° SSW 05:00:45 77° W 05:06:55 10° N
Cosmos 2082 3.6 05:02:27 45° SSW 05:04:15 83° ESE 05:09:54 10° NNE
Cosmos 2100 Rocket 4.2 04:58:01 10° N 05:04:16 73° E 05:10:33 10° SSE
ARGOS Delta rocket 4.1 05:01:21 10° N 05:06:07 53° WNW 05:06:13 53° WNW
Cosmos 1802 Rocket 4.4 05:00:50 10° N 05:06:59 63° ENE 05:13:03 10° SSE
Cosmos 2061 Rocket 4.3 05:00:52 10° N 05:07:11 70° E 05:13:31 10° SSE
SL-24 R/B 4.4 05:07:26 57° W 05:07:26 57° W 05:12:05 10° NNW
Okean 1-7 Rocket 3.7 05:10:57 56° WNW 05:10:57 56° WNW 05:15:05 10° N
Cosmos 2228 3.9 05:07:51 10° N 05:12:10 51° ENE 05:16:26 10° SSE
NOSS 3-4 (A) 3.5 05:09:55 41° SW 05:12:24 88° NW 05:19:05 10° NE
NOSS 3-4 (C) 3.5 05:10:00 41° SW 05:12:30 88° NW 05:19:11 10° NE
Meteor 1-15 Rocket 4.3 05:10:13 10° N 05:15:50 79° ENE 05:21:27 10° SSE
Cosmos 724 4.3 05:09:57 10° NW 05:16:06 63° WSW 05:22:14 10° SSE
ADEOS II 3.5 05:14:05 10° NNE 05:18:58 37° E 05:23:50 10° SSE
Cosmos 2084 3.9 05:20:30 40° NW 05:20:30 40° NW 05:24:06 10° NNE
BREEZE-M DEB (TANK) 2.2 05:22:06 52° SE 05:22:06 52° SE 05:24:17 10° ESE
Cosmos 1666 2.5 05:18:10 10° NNW 05:22:03 74° W 05:22:49 54° SSW
Lacrosse 5 rocket 2.5 05:21:06 32° NW 05:22:18 38° NNW 05:26:28 10° NE
Tiangong 1 3.1 05:24:12 19° SSE 05:24:12 19° SSE 05:25:42 10° ESE
MOS 1-B 4.4 05:18:12 10° N 05:23:53 59° WNW 05:26:17 34° SW
ATLAS 5 CENTAUR R/B 3.7 05:30:34 22° SSW 05:30:34 22° SSW 05:33:27 10° S
CZ-2C R/B 3.8 05:26:02 21° S 05:28:58 54° W 05:33:34 10° NNW
COS B Rocket 3.3 05:30:37 40° NNE 05:30:37 40° NNE 05:32:31 10° N
CZ-4B R/B 3.2 05:24:28 10° NNE 05:29:55 81° ESE 05:35:25 10° SSW
ASTRO F (AKARI) 4.5 05:26:48 10° SSE 05:29:59 72° ENE 05:33:19 10° N
CZ-4B R/B 3.1 05:27:22 10° NNE 05:31:47 86° ESE 05:35:15 17° SSW
ATLAS 2AS CENTAUR R/B 4.2 05:29:32 18° WNW 05:34:35 33° NNW 05:41:49 10° NE
Cosmos 2016 Rocket 4.1 05:30:37 10° N 05:37:01 85° E 05:43:18 10° S
Meteor 1-19 Rocket 4.2 05:35:21 24° SW 05:38:39 59° WNW 05:44:11 10° N
Cosmos 292 Rocket 4.2 05:35:48 10° NW 05:40:19 39° WSW 05:44:48 10° S
Cosmos 2173 Rocket 3.9 05:36:13 10° NNW 05:42:17 68° W 05:48:21 10° S
Cosmos 1727 Rocket 4.3 05:40:04 24° SW 05:43:38 47° WNW 05:49:45 10° N
Cosmos 2058 Rocket 3.0 05:39:24 10° NNW 05:43:42 58° W 05:47:59 10° S
Meteor 2-4 Rocket 3.8 05:40:14 12° SSW 05:45:43 70° WNW 05:51:40 10° N
CZ-2D R/B 3.2 05:42:10 10° N 05:46:25 26° WNW 05:47:32 24° W
Cosmos 2298 Rocket 4.0 05:42:31 12° SSW 05:47:23 85° ESE 05:52:45 10° NNE
Cosmos 1459 Rocket 4.0 05:41:47 10° NNW 05:48:04 61° W 05:54:16 10° S
Okean 2 3.3 05:46:09 19° SSW 05:49:03 66° WNW 05:53:11 10° N
Okean-O 3.2 05:45:16 10° NNE 05:49:41 59° ESE 05:54:03 10° S
Aureole 2 Rocket 2.6 05:46:41 10° NW 05:50:03 41° WSW 05:53:05 10° S
SeaSat 1 4.4 05:46:14 10° ESE 05:50:26 29° NE 05:54:40 10° NNW
SL-16 R/B 2.6 05:46:02 10° NW 05:51:17 40° WSW 05:56:32 10° S
Cosmos 192 4.2 05:48:22 10° NNW 05:53:21 77° WSW 05:58:16 10° SSE
Meteor 2-9 Rocket 4.4 05:48:35 10° NNW 05:53:57 47° W 05:59:25 10° SSW
Meteor 1-23 Rocket 4.2 05:49:42 10° SSW 05:55:18 64° WNW 06:01:01 10° N
Lacrosse 5 1.9 05:54:26 26° WSW 05:57:19 67° NNW 06:02:23 10° NE
Cosmos 1025 Rocket 3.7 05:56:18 27° WSW 05:57:45 34° WNW 06:01:42 10° N
USA 116 4.0 05:53:12 10° S 05:58:09 75° WSW 06:02:34 10° NNW
SOZ 3.9 05:57:34 39° W 05:58:15 57° SSW 06:00:24 10° SE
Thor Agena Rocket 3.7 05:54:15 10° S 05:59:24 52° W 06:04:35 10° NNW
UNKNOWN OBJECT B 4.5 05:56:45 10° NNW 05:59:30 18° WNW 05:59:33 18° WNW
COSMO-SKYMED 1 4.1 05:55:57 10° SE 06:00:00 40° ENE 06:04:05 10° N
Cosmos 2123 Rocket 4.3 05:54:46 10° S 06:00:53 70° E 06:07:02 10° NNE
Cosmos 2150 Rocket 3.9 05:55:59 10° SSW 06:01:07 85° WNW 06:06:20 10° NNE
IRS-1C Rocket 4.4 05:56:03 10° N 06:01:07 47° WNW 06:05:26 14° SW
Resurs 1-4 Rocket 3.6 06:01:05 10° NNW 06:04:46 19° NW 06:06:22 17° W
Meteor 2-15 4.4 06:00:05 10° S 06:06:09 85° W 06:12:15 10° N
Cosmos 1174 3.3 06:04:50 20° NW 06:06:38 46° WSW 06:09:44 10° SSE
Cosmos 2227 Rocket 2.9 06:03:30 20° WSW 06:06:47 38° NW 06:12:04 10° NNE
SL-16 R/B 4.4 06:08:50 10° WNW 06:08:50 10° WNW 06:09:05 10° WNW
USA 129 1.1 06:06:32 10° SSE 06:08:18 75° ENE 06:09:01 27° N
EXPRESS MD2 4.3 06:10:35 21° WSW 06:11:58 27° SSW 06:16:34 10° SSE
Cosmos 1864 Rocket 4.5 06:06:14 10° NNW 06:12:36 80° W 06:18:57 10° S
Cosmos 2297 Rocket 2.7 06:11:35 17° WSW 06:15:40 42° NW 06:21:04 10° NNE
Cosmos 1626 Rocket 3.5 06:11:28 10° S 06:15:51 89° W 06:20:13 10° N
Cosmos 1346 Rocket 3.7 06:15:12 17° WSW 06:17:29 29° WNW 06:21:04 10° N
Okean O Rocket 2.6 06:15:00 10° N 06:18:45 28° WNW 06:21:34 15° WSW
ADEOS Rocket 3.4 06:12:24 10° N 06:19:35 63° WNW 06:26:01 10° SSW
Cosmos 2098 Rocket 3.3 06:16:13 10° NNW 06:19:51 42° W 06:24:23 10° SSW
RESURS DK-1 3.5 06:20:47 17° W 06:23:08 27° NW 06:26:43 10° NNE
Cosmos 1898 Rocket 3.7 06:21:00 10° SW 06:26:11 52° WNW 06:31:23 10° NNE
CENTAUR R/B 3.4 06:19:07 10° NW 06:26:24 45° WSW 06:34:09 10° S
Meteor 2-15 Rocket 4.4 06:20:31 10° SSW 06:26:34 72° WNW 06:32:39 10° N
Meteor 1-22 Rocket 4.4 06:25:49 10° N 06:31:19 80° ENE 06:37:00 10° SSE
Cosmos 1943 3.3 06:27:34 10° NNW 06:33:14 87° ENE 06:38:52 10° SSE
OPS 6432 4.1 06:33:07 10° SW 06:36:19 77° NW 06:39:25 10° NE
NOSS 2-2 (D) 3.9 06:32:19 10° SSW 06:36:30 73° SE 06:41:34 10° NE
Cosmos 1937 Rocket 3.6 06:31:41 10° SW 06:36:51 57° WNW 06:42:06 10° NNE
Cosmos 1603 4.1 06:33:33 10° NW 06:38:56 43° WSW 06:44:15 10° S
Cosmos 1602 Rocket 3.7 06:35:41 10° SSW 06:40:00 53° WNW 06:44:20 10° N
PSLV R/B 4.2 06:36:38 10° N 06:40:37 36° WNW 06:44:33 10° SW
Cosmos 2233 Rocket 4.0 06:37:45 10° NNW 06:44:03 73° W 06:50:14 10° S
Cosmos 1766 3.6 06:40:32 10° N 06:44:34 74° ENE 06:48:34 10° SSE
NOAA 6 4.1 06:41:34 10° NNE 06:46:49 89° WNW 06:52:01 10° SSW
SKYMED 2 3.5 06:43:40 10° S 06:47:59 71° WSW 06:52:22 10° NNW
Meteor 1-31 Rocket 2.9 06:44:58 10° N 06:48:49 56° WNW 06:52:39 10° SSW
Cosmos 2228 4.4 06:46:17 10° NW 06:49:22 19° W 06:52:25 10° SW
Genesis I 3.4 06:45:46 10° SW 06:49:45 81° SE 06:53:46 10° NE
Cosmos 2263 Rocket 3.8 06:45:00 10° S 06:50:04 38° ESE 06:55:10 10° NE
Cosmos 972 Rocket 4.4 06:45:48 10° SSW 06:51:28 71° WNW 06:57:55 10° NNE
NOSS 2-2 (C) 3.7 06:47:37 10° SW 06:51:53 87° NW 06:57:04 10° NE
NOSS 2-2 (E) 3.8 06:48:54 10° SW 06:53:13 79° NW 06:58:34 10° NE
CZ-4B R/B 4.0 06:51:22 10° N 06:55:14 51° WNW 06:58:55 10° SSW
DNEPR-1 R/B 3.7 06:51:04 10° NW 06:56:17 80° SW 07:00:41 10° SE
USA 229 DEB 4.5 06:49:30 10° NW 06:56:28 56° NE 07:03:30 10° ESE
USA 229 4.5 06:49:36 10° NW 06:56:33 56° NE 07:03:34 10° ESE
